Wind_Speed
43 40 46 48 55 54 54 53 55 55 51 50 49 48 47 45 44 43 38 33 30 28 28 28 28 25 24 22 19 16 15 16 14
29 38 43 49 53 57 59 57 56 58 55 52 51 50 48 48 45 44 42 37 31 29 29 27 28 25 24 21 19 18 18 17 15
34 38 44 49 49 52 56 60 59 58 59 54 52 49 51 50 47 43 41 39 34 29 30 28 31 29 27 24 22 21 21 19 16
38 40 45 48 51 55 56 55 58 58 58 58 56 56 54 53 51 47 44 42 37 33 29 31 31 33 29 26 25 24 24 22 19
37 36 38 41 46 50 50 53 54 57 57 56 56 55 54 55 53 50 48 45 39 36 33 32 31 34 33 30 28 25 25 23 22
20 26 32 36 36 39 46 50 52 54 55 56 55 54 54 54 55 53 50 47 43 39 36 34 36 35 37 34 32 28 25 24 23
26 22 19 24 34 40 45 49 51 52 52 52 53 53 53 54 54 53 51 47 44 42 39 37 38 40 40 37 35 31 28 28 27
22 20 21 17 21 33 43 47 49 51 49 49 50 50 52 54 54 50 48 49 45 41 41 41 39 42 42 42 38 36 34 31 29
28 29 28 26 22 30 39 45 47 50 48 48 47 46 49 51 53 50 48 50 49 44 43 45 43 43 46 45 43 40 37 33 31
36 38 39 38 30 28 34 44 45 47 48 49 46 47 46 48 51 50 48 47 50 49 46 46 48 45 45 49 46 43 40 36 34
42 40 40 37 29 32 34 40 46 46 46 48 49 49 49 48 48 47 47 48 50 51 49 48 48 49 47 47 48 46 43 37 36
38 32 31 19 22 23 27 34 40 44 46 46 46 48 50 48 46 46 47 48 50 53 53 51 50 50 49 48 45 44 41 39 41
32 31 29 23 23 21 29 33 37 40 41 42 48 47 46 46 46 47 47 46 49 51 53 53 52 51 51 49 46 43 37 40 42
23 21 19 20 14 10 21 29 33 36 39 43 41 43 43 45 45 46 44 47 47 48 52 52 52 51 52 49 45 42 37 37 38
15 17 14 11 11 11 12 16 19 22 28 29 34 36 37 42 43 45 48 46 45 45 44 46 47 44 46 48 44 40 38 38 38
13 13 12 10 8 8 8 3 8 14 19 23 24 28 32 35 39 43 44 45 46 41 39 41 46 47 45 43 41 39 37 34 33
21 21 21 18 16 16 16 12 9 6 6 15 20 24 25 28 34 37 38 40 42 44 47 50 52 52 51 44 42 41 40 39 38
23 24 22 19 18 17 16 14 12 9 8 9 9 9 17 20 23 31 34 36 40 44 44 41 37 35 34 38 41 38 36 38 36
21 19 16 15 16 14 15 13 13 14 14 15 14 15 16 15 17 23 30 34 38 39 38 36 34 35 39 36 22 19 12 8 8
24 22 19 17 15 13 12 11 10 11 14 16 17 18 19 16 16 20 24 33 35 29 28 36 38 34 29 26 9 6 18 32 16
Wind_Direction
218 217 219 219 223 223 229 227 228 230 230 231 229 229 229 230 232 232 234 235 233 232 230 232 230 236 241 241 242 242 232 231 231
224 220 219 223 224 225 229 230 227 229 230 231 233 232 233 231 233 234 235 236 235 236 235 234 227 233 235 233 236 239 236 231 232
228 226 226 226 225 225 228 232 234 231 231 231 232 234 236 235 234 236 237 239 236 235 232 233 229 231 233 235 238 239 237 232 230
228 231 233 231 228 230 233 231 231 234 233 232 233 236 238 237 235 235 236 239 238 238 235 231 231 229 230 232 236 238 238 233 233
237 240 246 241 236 227 224 226 227 233 235 234 236 236 238 239 238 237 237 239 239 236 238 232 231 230 230 233 232 234 235 232 232
235 239 245 242 233 220 225 227 227 232 235 238 238 237 238 239 239 237 238 239 240 237 237 235 230 231 230 230 228 227 232 233 235
237 236 250 248 236 226 225 230 231 232 235 237 237 237 237 238 239 239 237 238 238 238 236 236 231 231 231 229 229 229 232 235 238
236 250 244 249 249 235 226 225 230 233 237 234 234 235 237 239 240 239 238 236 236 237 235 237 235 232 232 232 231 231 232 235 239
242 244 244 255 260 243 233 228 230 231 232 236 234 236 240 239 238 238 236 235 234 235 237 237 237 235 234 235 234 234 236 237 241
246 250 258 262 260 252 243 233 233 232 235 233 235 238 237 237 236 236 235 233 232 233 236 238 238 238 238 239 239 239 240 241 243
248 255 259 259 255 257 248 242 236 239 235 238 238 238 236 233 233 235 235 233 232 232 233 236 238 238 240 242 242 242 243 244 246
250 255 251 255 271 268 250 236 234 236 234 236 236 234 235 233 233 234 233 234 232 231 232 234 236 240 241 243 244 245 244 243 244
254 250 249 264 263 256 242 237 234 236 235 235 237 239 239 238 235 235 234 237 235 234 234 237 238 238 242 244 244 245 242 239 239
241 234 242 233 233 249 235 231 236 242 241 239 250 245 240 239 237 238 245 240 238 237 236 237 239 241 244 245 243 244 239 235 234
192 193 194 205 216 221 232 234 235 240 248 259 249 246 246 246 244 240 239 240 237 236 237 239 239 240 243 245 244 239 233 223 219
147 142 137 130 122 105 90 93 229 238 242 249 254 256 259 258 253 250 247 242 238 234 235 247 245 238 239 244 241 230 227 224 223
115 107 101 98 99 91 85 73 62 47 288 270 269 267 267 268 262 257 250 246 244 243 237 237 231 235 236 230 229 227 217 209 209
104 100 95 88 80 73 66 55 44 30 9 353 341 308 268 261 261 258 251 243 242 247 245 241 226 222 219 228 228 227 223 230 198
97 91 88 80 70 58 47 30 15 5 352 336 325 314 309 299 273 251 246 240 237 237 234 237 234 233 227 215 211 144 87 89 1
89 85 78 68 56 40 25 13 4 347 326 318 314 301 294 279 257 251 244 232 224 218 214 220 216 198 176 162 118 209 227 237 257
Height
1440 1449 1452 1456 1460 1466 1470 1475 1481 1486 1491 1497 1502 1507 1512 1518 1523 1527 1532 1536 1541 1544 1547 1550 1555 1557 1559 1561 1563 1565 1566 1568 1570
1435 1438 1443 1444 1450 1455 1460 1466 1471 1476 1483 1488 1494 1499 1505 1511 1516 1520 1525 1529 1534 1538 1542 1546 1549 1552 1555 1557 1559 1561 1563 1565 1567
1424 1427 1431 1434 1440 1446 1450 1455 1458 1467 1474 1479 1485 1491 1496 1502 1508 1514 1519 1523 1528 1531 1535 1540 1543 1547 1550 1552 1555 1557 1559 1561 1564
1413 1417 1420 1423 1428 1432 1437 1446 1451 1455 1462 1470 1476 1482 1488 1494 1500 1506 1512 1515 1521 1526 1529 1533 1537 1541 1545 1547 1550 1553 1556 1558 1560
1408 1411 1411 1414 1417 1423 1430 1434 1443 1445 1452 1459 1464 1471 1479 1484 1491 1498 1502 1507 1513 1520 1523 1527 1531 1535 1539 1541 1545 1548 1550 1553 1556
1403 1405 1405 1408 1414 1418 1421 1426 1431 1437 1443 1447 1455 1461 1468 1474 1479 1487 1493 1499 1506 1512 1516 1519 1523 1528 1530 1533 1537 1541 1544 1548 1551
1398 1400 1401 1402 1406 1408 1412 1415 1419 1424 1431 1439 1446 1452 1458 1463 1468 1474 1483 1490 1496 1501 1507 1511 1514 1518 1522 1525 1529 1534 1538 1541 1544
1393 1394 1396 1396 1398 1400 1403 1408 1412 1417 1423 1429 1436 1443 1448 1451 1456 1466 1473 1479 1486 1491 1497 1500 1504 1509 1513 1517 1521 1525 1529 1533 1537
1387 1387 1388 1390 1392 1395 1398 1401 1404 1407 1413 1418 1425 1432 1436 1443 1448 1456 1462 1469 1476 1481 1487 1492 1496 1500 1505 1508 1511 1516 1521 1526 1529
1382 1382 1383 1384 1386 1387 1388 1392 1395 1401 1405 1411 1416 1419 1425 1432 1438 1444 1450 1458 1465 1470 1475 1483 1487 1491 1496 1499 1504 1509 1514 1518 1522
1372 1375 1377 1376 1378 1378 1380 1383 1389 1393 1399 1401 1405 1408 1415 1421 1427 1434 1441 1447 1453 1459 1465 1469 1475 1481 1485 1490 1495 1500 1506 1511 1513
1365 1367 1369 1371 1371 1371 1372 1376 1381 1386 1391 1396 1398 1401 1407 1411 1417 1424 1430 1434 1440 1446 1453 1458 1462 1467 1474 1478 1484 1488 1496 1502 1503
1358 1360 1363 1365 1365 1365 1367 1371 1377 1381 1385 1388 1391 1395 1397 1402 1408 1413 1418 1423 1430 1437 1443 1448 1455 1459 1463 1468 1474 1477 1484 1487 1489
1352 1356 1358 1358 1360 1361 1364 1369 1374 1377 1379 1379 1382 1387 1392 1395 1400 1405 1410 1415 1422 1428 1434 1439 1443 1448 1452 1457 1462 1466 1471 1476 1479
1348 1349 1352 1355 1357 1359 1361 1365 1369 1372 1374 1377 1383 1387 1390 1393 1393 1396 1400 1405 1412 1420 1427 1434 1437 1439 1442 1445 1450 1455 1458 1461 1464
1348 1348 1351 1354 1356 1357 1360 1363 1367 1372 1375 1378 1381 1383 1385 1387 1390 1394 1400 1401 1405 1407 1415 1427 1431 1428 1430 1435 1439 1442 1450 1457 1464
1348 1348 1351 1354 1355 1357 1358 1362 1364 1367 1369 1372 1374 1377 1379 1383 1388 1392 1394 1398 1398 1403 1404 1396 1406 1408 1416 1419 1421 1429 1433 1436 1445
1349 1350 1352 1353 1354 1357 1358 1361 1364 1365 1367 1368 1370 1372 1374 1376 1379 1382 1386 1389 1390 1394 1398 1402 1409 1408 1414 1425 1422 1426 1435 1438 1428
1346 1349 1351 1353 1354 1357 1358 1360 1361 1361 1363 1364 1366 1367 1369 1369 1370 1373 1377 1379 1381 1385 1389 1395 1402 1407 1410 1411 1419 1428 1437 1433 1434
1348 1351 1353 1354 1355 1356 1358 1359 1360 1360 1360 1361 1361 1361 1361 1363 1363 1364 1366 1368 1372 1379 1381 1382 1389 1395 1400 1406 1409 1420 1425 1427 1448